FW6341 Weather Reports


time (UTC)temp
C
wind
direction
speed
KPH
gust
KPH
rain 1hr
cm
rain 24hr
cm
rain mn
cm
humidity
%
barometer
mb
20260506014003 16 134 0.0 0.0 0.00 0.00 0.00 76 1016.3
20260506013501 16 140 1.6 1.6 0.00 0.00 0.00 76 1016.2
20260506012957 16 138 0.0 0.0 0.00 0.00 0.00 76 1016.1
20260506012453 16 146 0.0 0.0 0.00 0.00 0.00 76 1016.2
20260506011951 16 102 0.0 0.0 0.00 0.00 0.00 75 1016.3
20260506011448 16 102 0.0 0.0 0.00 0.00 0.00 75 1016.0
20260506010944 16 140 0.0 1.6 0.00 0.00 0.00 75 1016.2
20260506010444 17 109 0.0 0.0 0.00 0.00 0.00 75 1016.3
20260506005939 17 144 0.0 0.0 0.00 0.00 0.00 74 1016.2
20260506005438 17 144 0.0 0.0 0.00 0.00 0.00 74 1016.2
20260506004932 17 153 0.0 0.0 0.00 0.00 0.00 74 1016.1
20260506004431 17 130 0.0 0.0 0.00 0.00 0.00 74 1016.4
20260506003926 17 128 0.0 1.6 0.00 0.00 0.00 74 1016.3
20260506003423 17 301 0.0 0.0 0.00 0.00 0.00 74 1016.3
20260506002920 17 113 0.0 0.0 0.00 0.00 0.00 74 1016.4
20260506002416 17 134 0.0 0.0 0.00 0.00 0.00 74 1016.2
20260506001911 17 172 0.0 1.6 0.00 0.00 0.00 74 1016.5
20260506001408 17 114 0.0 1.6 0.00 0.00 0.00 74 1016.4
20260506000906 17 99 0.0 0.0 0.00 0.00 0.00 75 1016.4
20260506000403 17 156 0.0 0.0 0.00 0.00 0.00 74 1016.5
20260505235859 17 117 0.0 1.6 0.00 0.00 0.00 75 1016.6
20260505235358 16 166 1.6 1.6 0.00 0.00 0.00 75 1016.6
20260505234854 16 140 0.0 1.6 0.00 0.00 0.00 76 1016.7
20260505234352 16 180 1.6 1.6 0.00 0.00 0.00 75 1016.5
20260505233848 16 112 0.0 0.0 0.00 0.00 0.00 75 1016.7
20260505233347 16 140 0.0 0.0 0.00 0.00 0.00 76 1016.7
20260505232844 16 126 0.0 1.6 0.00 0.00 0.00 76 1016.6
20260505232342 16 104 0.0 0.0 0.00 0.00 0.00 76 1016.9
20260505231838 16 139 0.0 0.0 0.00 0.00 0.00 75 1016.6
20260505231335 17 101 0.0 1.6 0.00 0.00 0.00 75 1016.8
20260505230833 17 102 0.0 0.0 0.00 0.00 0.00 76 1016.4
20260505230330 17 104 0.0 1.6 0.00 0.00 0.00 76 1016.8
20260505225827 16 105 0.0 1.6 0.00 0.00 0.00 75 1016.6
20260505225325 16 301 3.2 3.2 0.00 0.00 0.00 75 1016.8
20260505224819 16 59 0.0 1.6 0.00 0.00 0.00 75 1016.6
20260505224317 16 351 3.2 3.2 0.00 0.00 0.00 75 1016.7
20260505223814 16 136 0.0 0.0 0.00 0.00 0.00 75 1016.8
20260505223311 17 91 1.6 1.6 0.00 0.00 0.00 75 1016.8
20260505222807 17 108 0.0 0.0 0.00 0.00 0.00 75 1016.7
20260505222305 17 113 0.0 0.0 0.00 0.00 0.00 75 1016.8
20260505221800 16 112 0.0 0.0 0.00 0.00 0.00 75 1016.9
20260505221257 16 104 0.0 0.0 0.00 0.00 0.00 75 1017.0
20260505220754 16 88 0.0 1.6 0.00 0.00 0.00 75 1017.0
20260505220251 16 151 0.0 1.6 0.00 0.00 0.00 75 1016.8
20260505215749 16 19 1.6 3.2 0.00 0.00 0.00 75 1016.9
20260505215247 17 149 1.6 1.6 0.00 0.00 0.00 75 1017.1
20260505214744 17 145 0.0 0.0 0.00 0.00 0.00 74 1016.9
20260505214242 17 136 0.0 0.0 0.00 0.00 0.00 75 1017.0
20260505213739 16 112 0.0 1.6 0.00 0.00 0.00 75 1017.1
20260505213236 16 140 0.0 0.0 0.00 0.00 0.00 75 1017.1
20260505212732 16 145 0.0 0.0 0.00 0.00 0.00 75 1017.0
20260505212229 17 154 1.6 1.6 0.00 0.00 0.00 75 1017.2
20260505211726 17 148 1.6 1.6 0.00 0.00 0.00 74 1017.1
20260505211224 17 104 0.0 1.6 0.00 0.00 0.00 73 1017.1
20260505210720 17 159 0.0 1.6 0.00 0.00 0.00 73 1017.3
20260505210217 17 110 0.0 0.0 0.00 0.00 0.00 74 1017.3
20260505205714 17 123 0.0 0.0 0.00 0.00 0.00 72 1017.4
20260505205212 17 149 1.6 1.6 0.00 0.00 0.00 73 1017.4
20260505204708 18 103 0.0 0.0 0.00 0.00 0.00 71 1017.2
20260505204207 18 126 0.0 0.0 0.00 0.00 0.00 73 1017.5
20260505203704 17 107 0.0 1.6 0.00 0.00 0.00 72 1017.5
20260505203200 17 133 0.0 0.0 0.00 0.00 0.00 74 1017.7
20260505202656 16 101 0.0 1.6 0.00 0.00 0.00 78 1017.7
20260505202152 16 95 0.0 0.0 0.00 0.00 0.00 78 1017.6
20260505201648 16 170 1.6 1.6 0.00 0.00 0.00 78 1017.5
20260505201147 16 119 0.0 0.0 0.00 0.00 0.00 79 1017.5
20260505200645 16 122 0.0 1.6 0.00 0.00 0.00 79 1017.5
20260505200141 16 3 1.6 1.6 0.00 0.00 0.00 78 1017.7
20260505195637 16 98 0.0 0.0 0.00 0.00 0.00 79 1017.6
20260505195135 16 299 0.0 1.6 0.00 0.00 0.00 78 1017.7
20260505194632 16 148 0.0 0.0 0.00 0.00 0.00 78 1017.6
20260505194128 16 344 1.6 1.6 0.00 0.00 0.00 79 1017.9
20260505193624 15 119 0.0 0.0 0.00 0.00 0.00 79 1017.9
20260505193121 15 156 0.0 1.6 0.00 0.00 0.00 79 1017.8
20260505192620 15 139 0.0 0.0 0.00 0.00 0.00 79 1018.0
20260505192117 15 138 0.0 1.6 0.00 0.00 0.00 79 1018.0
20260505191616 15 98 0.0 0.0 0.00 0.00 0.00 81 1018.0
20260505191113 15 106 0.0 0.0 0.00 0.00 0.00 81 1018.0
20260505190608 15 145 0.0 0.0 0.00 0.00 0.00 82 1017.8
20260505190104 15 116 0.0 0.0 0.00 0.00 0.00 82 1017.6
20260505185601 15 127 0.0 1.6 0.00 0.00 0.00 83 1017.9
20260505185057 15 317 1.6 1.6 0.00 0.00 0.00 82 1017.8
20260505184554 14 147 0.0 0.0 0.00 0.00 0.00 83 1017.8
20260505184051 14 138 0.0 0.0 0.00 0.00 0.00 84 1017.8
20260505183547 14 133 0.0 0.0 0.00 0.00 0.00 84 1017.9
20260505183045 13 109 0.0 0.0 0.00 0.00 0.00 85 1017.7
20260505182541 14 110 1.6 1.6 0.00 0.00 0.00 84 1018.0
20260505182038 14 143 0.0 0.0 0.00 0.00 0.00 84 1017.8
20260505181535 14 106 0.0 0.0 0.00 0.00 0.00 84 1017.7
20260505181032 14 135 0.0 0.0 0.00 0.00 0.00 84 1017.7
20260505180527 14 143 0.0 0.0 0.00 0.00 0.00 85 1017.6
20260505180026 13 135 0.0 0.0 0.00 0.00 0.00 84 1017.8
20260505175520 13 134 0.0 0.0 0.00 0.00 0.00 84 1017.6
20260505175018 13 134 0.0 0.0 0.00 0.00 0.00 84 1017.5
20260505174515 13 110 0.0 1.6 0.00 0.00 0.00 83 1017.6
20260505174010 13 134 0.0 0.0 0.00 0.00 0.00 84 1017.7
20260505173507 13 133 0.0 0.0 0.00 0.00 0.00 83 1017.5
20260505173004 14 133 0.0 1.6 0.00 0.00 0.00 83 1017.6
20260505172502 14 121 0.0 0.0 0.00 0.00 0.00 84 1017.3
20260505171957 13 142 0.0 0.0 0.00 0.00 0.00 85 1017.3
20260505171453 13 164 1.6 1.6 0.00 0.00 0.00 84 1017.3
20260505170950 13 139 0.0 0.0 0.00 0.00 0.00 85 1017.5
20260505170447 13 146 0.0 0.0 0.00 0.00 0.00 85 1017.4
20260505165942 13 134 0.0 0.0 0.00 0.00 0.00 87 1017.3
20260505165438 13 65 1.6 1.6 0.00 0.00 0.00 86 1017.1
20260505164934 13 134 0.0 0.0 0.00 0.00 0.00 86 1017.1
20260505164431 13 123 0.0 0.0 0.00 0.00 0.00 87 1017.2
20260505163928 13 99 1.6 1.6 0.00 0.00 0.00 86 1016.9
20260505163427 13 149 0.0 1.6 0.00 0.00 0.00 86 1017.2
20260505162926 13 149 0.0 0.0 0.00 0.00 0.00 87 1017.1
20260505162421 13 125 0.0 0.0 0.00 0.00 0.00 87 1017.0
20260505161918 13 132 1.6 1.6 0.00 0.00 0.00 87 1016.9
20260505161415 13 109 0.0 0.0 0.00 0.00 0.00 88 1017.0
20260505160913 13 117 0.0 0.0 0.00 0.00 0.00 89 1016.9
20260505160410 13 107 0.0 0.0 0.00 0.00 0.00 89 1017.0
20260505153349 12 114 0.0 0.0 0.00 0.00 0.00 91 1017.0
20260505152846 12 132 0.0 0.0 0.00 0.00 0.00 91 1017.1
20260505152343 12 142 0.0 1.6 0.00 0.00 0.00 91 1017.0
20260505151837 12 139 0.0 0.0 0.00 0.00 0.00 91 1016.9
20260505151334 12 136 0.0 0.0 0.00 0.00 0.00 91 1017.0
20260505150832 12 114 0.0 0.0 0.00 0.00 0.00 91 1016.9
20260505150329 12 93 0.0 0.0 0.00 0.00 0.00 91 1016.9
20260505140253 12 131 0.0 0.0 0.00 0.00 0.00 92 1016.2
20260505130217 12 113 0.0 0.0 0.00 0.00 0.00 91 1016.0
20260505124707 12 108 0.0 0.0 0.00 0.00 0.00 91 1016.1
20260505124203 12 129 0.0 0.0 0.00 0.00 0.00 90 1015.7
20260505123659 12 169 1.6 3.2 0.00 0.00 0.00 90 1015.7
20260505123156 12 129 0.0 0.0 0.00 0.00 0.00 90 1015.7
20260505122653 12 131 0.0 0.0 0.00 0.00 0.00 90 1015.8
20260505122150 12 120 0.0 0.0 0.00 0.00 0.00 90 1015.8
20260505121647 12 142 0.0 0.0 0.00 0.00 0.00 90 1015.8
20260505121143 12 153 0.0 1.6 0.00 0.00 0.00 90 1015.8
20260505120639 12 103 0.0 1.6 0.00 0.00 0.00 90 1015.5
20260505120135 12 107 0.0 0.0 0.00 0.00 0.00 90 1015.9
20260505115629 12 152 1.6 1.6 0.00 0.00 0.00 89 1015.4
20260505115127 12 119 0.0 0.0 0.00 0.00 0.00 89 1015.6
20260505114624 12 127 0.0 0.0 0.00 0.00 0.00 89 1015.7
20260505114120 12 114 1.6 1.6 0.00 0.00 0.00 89 1015.7
20260505113617 12 120 0.0 0.0 0.00 0.00 0.00 89 1015.6
20260505113114 12 109 0.0 1.6 0.00 0.00 0.00 89 1015.7
20260505112610 12 123 0.0 0.0 0.00 0.00 0.00 88 1015.4
20260505112108 12 137 0.0 0.0 0.00 0.00 0.00 88 1015.6
20260505111602 12 144 0.0 1.6 0.00 0.00 0.00 88 1015.8
20260505111058 12 150 0.0 0.0 0.00 0.00 0.00 88 1015.7
20260505110555 12 112 0.0 0.0 0.00 0.00 0.00 88 1015.5
20260505102027 12 126 0.0 0.0 0.00 0.00 0.00 88 1015.3
20260505101526 12 105 0.0 0.0 0.00 0.00 0.00 88 1015.2
20260505101022 12 113 0.0 0.0 0.00 0.00 0.00 88 1015.1
20260505100519 12 119 0.0 0.0 0.00 0.00 0.00 88 1015.0
20260505100016 12 121 0.0 0.0 0.00 0.00 0.00 88 1015.2
20260505095512 12 138 0.0 1.6 0.00 0.00 0.00 88 1015.2
20260505095008 12 143 0.0 1.6 0.00 0.00 0.00 88 1015.1
20260505094505 12 125 0.0 0.0 0.00 0.00 0.00 88 1015.1
20260505094001 12 130 0.0 0.0 0.00 0.00 0.00 88 1015.1
20260505093457 12 124 0.0 0.0 0.00 0.00 0.00 88 1015.1
20260505092955 12 128 0.0 0.0 0.00 0.00 0.00 88 1015.1
20260505092452 12 117 0.0 0.0 0.00 0.00 0.00 88 1014.9
20260505091950 12 116 0.0 0.0 0.00 0.00 0.00 88 1015.2
20260505091447 12 116 0.0 0.0 0.00 0.00 0.00 87 1014.9
20260505090945 12 120 0.0 0.0 0.00 0.00 0.00 87 1014.9
20260505090443 12 133 0.0 0.0 0.00 0.00 0.00 86 1014.7
20260505085940 13 120 0.0 0.0 0.00 0.00 0.00 86 1015.0
20260505085438 13 123 0.0 0.0 0.00 0.00 0.00 86 1014.7
20260505084936 13 128 1.6 1.6 0.00 0.00 0.00 86 1014.6
20260505084434 13 147 0.0 0.0 0.00 0.00 0.00 85 1014.7
20260505083932 13 142 0.0 0.0 0.00 0.00 0.00 85 1014.8
20260505083429 13 141 0.0 0.0 0.00 0.00 0.00 85 1014.6
20260505082925 13 64 1.6 1.6 0.00 0.00 0.00 85 1014.8
20260505082421 13 114 0.0 0.0 0.00 0.00 0.00 85 1014.7
20260505081918 13 165 1.6 1.6 0.00 0.00 0.00 85 1014.7
20260505081415 13 124 3.2 3.2 0.00 0.00 0.00 84 1014.6
20260505080911 13 18 1.6 3.2 0.00 0.00 0.00 85 1014.5
20260505080407 13 102 1.6 1.6 0.00 0.00 0.00 85 1014.6
20260505075903 13 120 0.0 0.0 0.00 0.00 0.00 85 1014.5
20260505075400 13 147 0.0 0.0 0.00 0.00 0.00 86 1014.5
20260505074857 13 118 0.0 0.0 0.00 0.00 0.00 86 1014.4
20260505074354 13 121 0.0 0.0 0.00 0.00 0.00 85 1014.2
20260505073851 13 103 0.0 0.0 0.00 0.00 0.00 85 1014.4
20260505073349 13 115 0.0 0.0 0.00 0.00 0.00 85 1014.2
20260505072846 13 112 0.0 0.0 0.00 0.00 0.00 84 1014.2
20260505072342 13 105 1.6 1.6 0.00 0.00 0.00 84 1013.9
20260505071838 13 118 0.0 0.0 0.00 0.00 0.00 83 1013.9
20260505071335 13 115 0.0 0.0 0.00 0.00 0.00 83 1014.0
20260505070833 13 99 0.0 0.0 0.00 0.00 0.00 82 1013.8
20260505070329 13 122 1.6 1.6 0.00 0.00 0.00 82 1013.8
20260505065825 14 125 0.0 0.0 0.00 0.00 0.00 82 1013.8
20260505065321 14 135 0.0 0.0 0.00 0.00 0.00 82 1013.7
20260505064819 15 115 0.0 0.0 0.00 0.00 0.00 82 1013.3
20260505064316 15 71 4.8 4.8 0.00 0.00 0.00 82 1013.5
20260505063814 15 111 0.0 1.6 0.00 0.00 0.00 82 1013.5
20260505063310 15 108 0.0 0.0 0.00 0.00 0.00 82 1013.5
20260505062806 15 119 0.0 0.0 0.00 0.00 0.00 81 1013.3
20260505062304 15 124 0.0 0.0 0.00 0.00 0.00 81 1013.1
20260505061800 15 131 0.0 0.0 0.00 0.00 0.00 79 1013.2
20260505061259 16 180 1.6 1.6 0.00 0.00 0.00 79 1013.3
20260505060756 16 108 1.6 1.6 0.00 0.00 0.00 78 1013.1
20260505060253 16 111 0.0 1.6 0.00 0.00 0.00 78 1012.9
20260505055748 16 134 0.0 0.0 0.00 0.00 0.00 77 1013.1
20260505055244 16 141 0.0 1.6 0.00 0.00 0.00 77 1012.8
20260505054742 17 107 1.6 1.6 0.00 0.00 0.00 77 1012.8
20260505054239 17 123 0.0 0.0 0.00 0.00 0.00 77 1012.8
20260505053738 17 132 0.0 0.0 0.00 0.00 0.00 77 1012.9
20260505053234 17 146 0.0 0.0 0.00 0.00 0.00 76 1012.7
20260505052731 17 113 0.0 0.0 0.00 0.00 0.00 76 1012.7
20260505052228 17 116 0.0 0.0 0.00 0.00 0.00 77 1012.7
20260505051725 17 134 0.0 0.0 0.00 0.00 0.00 77 1012.6
20260505051223 17 124 0.0 0.0 0.00 0.00 0.00 76 1012.5
20260505050721 17 96 0.0 0.0 0.00 0.00 0.00 77 1012.5
20260505050219 18 121 0.0 0.0 0.00 0.00 0.00 76 1012.8
20260505041648 17 145 0.0 1.6 0.00 0.00 0.00 80 1011.9
20260505041146 17 125 0.0 0.0 0.00 0.00 0.00 81 1011.7
20260505040643 17 111 0.0 0.0 0.00 0.00 0.00 81 1011.5
20260505040140 17 114 0.0 0.0 0.00 0.00 0.00 81 1011.7
20260505035636 17 127 0.0 0.0 0.00 0.00 0.00 81 1011.6
20260505035132 18 127 0.0 0.0 0.00 0.00 0.00 80 1011.3
20260505034629 18 127 0.0 0.0 0.00 0.00 0.00 79 1011.1
20260505034126 18 127 0.0 0.0 0.00 0.00 0.00 79 1011.2
20260505033623 18 138 0.0 0.0 0.00 0.00 0.00 79 1011.4
20260505033121 18 112 0.0 0.0 0.00 0.00 0.00 78 1011.3
20260505032619 18 111 0.0 0.0 0.00 0.00 0.00 77 1011.2
20260505032115 18 131 0.0 0.0 0.00 0.00 0.00 77 1011.1
20260505031612 19 142 0.0 0.0 0.00 0.00 0.00 76 1011.1
20260505031108 19 112 0.0 0.0 0.00 0.00 0.00 76 1011.0
20260505030606 19 180 3.2 3.2 0.00 0.00 0.00 75 1011.1
20260505025557 20 119 0.0 0.0 0.00 0.00 0.00 74 1011.0
20260505025056 20 127 0.0 0.0 0.00 0.00 0.00 73 1010.8
20260505024553 20 125 0.0 0.0 0.00 0.00 0.00 73 1010.9
20260505024050 20 96 0.0 1.6 0.00 0.00 0.00 72 1010.8
20260505023547 20 119 0.0 0.0 0.00 0.00 0.00 71 1010.5
20260505023045 20 117 0.0 0.0 0.00 0.00 0.00 71 1010.8
20260505022543 20 108 0.0 1.6 0.00 0.00 0.00 71 1010.7
20260505022039 21 152 1.6 1.6 0.00 0.00 0.00 70 1010.8
20260505021536 21 125 0.0 1.6 0.00 0.00 0.00 71 1010.5
20260505021033 21 153 0.0 0.0 0.00 0.00 0.00 69 1011.0
20260505020532 21 123 3.2 3.2 0.00 0.00 0.00 68 1010.7
20260505020030 21 139 0.0 1.6 0.00 0.00 0.00 68 1010.9
20260505015527 21 202 1.6 1.6 0.00 0.00 0.00 68 1010.4
20260505015024 21 355 1.6 1.6 0.00 0.00 0.00 68 1010.7
20260505014520 21 84 1.6 1.6 0.00 0.00 0.00 67 1010.7